Regional Weather Roundup
Issued by NWS Cleveland, OH

Home | Current Version | Previous Version | Graphics & Text | Print | Product List | Glossary On
Versions: 1 2 3 4 5 6 7 8 9 10 11 12 13 14 15 16 17 18 19 20 21 22 23 24 25 26 27 28 29 30 31 32 33 34 35 36 37 38 39 40 41 42 43 44 45 46 47 48 49 50
000
ASUS41 KCLE 180900
RWRCLE
OHIO REGIONAL WEATHER ROUNDUP
NATIONAL WEATHER SERVICE WILMINGTON, OH
500 AM EDT THU SEP 18 2014

NOTE: "FAIR" INDICATES FEW OR NO CLOUDS BELOW 12,000 FEET WITH NO
SIGNIFICANT WEATHER AND/OR OBSTRUCTIONS TO VISIBILITY.

OHZ001>008-015>018-024>027-034-035-043-044-181000-
   NORTHWEST OHIO

CITY           SKY/WX    TMP DP  RH WIND       PRES   REMARKS
DEFIANCE       CLEAR     46  42  86 CALM      30.05S
FINDLAY        CLEAR     50  47  89 CALM      30.03S
TOLEDO EXPRESS CLEAR     45  44  97 CALM      30.04S
TOLEDO METCALF CLEAR     50  45  83 NW3       30.05S
LIMA           CLEAR     46  43  89 CALM      30.04S FOG
$$

OHZ009>014-019>023-028>033-038-089-181000-
   NORTHEAST OHIO

CITY           SKY/WX    TMP DP  RH WIND       PRES   REMARKS
CLE-HOPKINS    PTCLDY    50  48  93 S3        30.05R
CLE-LAKEFRONT  PTCLDY    53  49  86 S8        30.01R
CUY CO. ARPT   NOT AVBL
LORAIN-ELYRIA  CLOUDY    54  49  83 CALM      30.04R
ASHTABULA      PTCLDY    43  42  97 CALM      30.03R FOG
AKRON-CANTON   MOCLDY    49  46  90 CALM      30.03R FOG
WOOSTER        NOT AVBL
MANSFIELD      MOCLDY    50  48  93 CALM      30.04R
YOUNGSTOWN     PTCLDY    46  45  96 CALM      30.02S
$$

OHZ042-051>053-060>062-070>072-077>081-181000-
  SOUTHWEST OHIO

CITY           SKY/WX    TMP DP  RH WIND       PRES   REMARKS
CINC-COVINGTON PTCLDY    53  49  86 N5        30.02S
CINC-LUNKEN    PTCLDY    48  48 100 NE5       30.04S FOG
HAMILTON       CLEAR     46  45  96 CALM      30.04S FOG
DAYTON         NOT AVBL
WRIGHT-PAT AFB NOT AVBL
DAYTON GENERAL CLEAR     49  47  93 NE5       30.03S
WILMINGTON     CLEAR     45  43  93 CALM      30.03S FOG
$$

OHZ036-037-039>041-045>050-054>059-063>069-073>076-082>088-181000-
  CENTRAL AND SOUTHEAST OHIO

CITY           SKY/WX    TMP DP  RH WIND       PRES   REMARKS
COLUMBUS       CLOUDY    51  46  83 CALM      30.02S
OSU AIRPORT    CLEAR     48  46  93 CALM      30.03R
BOLTON FIELD   NOT AVBL
RICKENBACK AFB NOT AVBL
NEWARK         MOCLDY    48  46  93 CALM      30.03R FOG
MARION         PTCLDY    49  46  90 CALM      30.04R
LANCASTER      PTCLDY    47  45  93 CALM      30.03R FOG
ZANESVILLE     PTCLDY    51  48  89 CALM      30.02R
NEW PHILLY     MOCLDY    50  49  96 CALM      30.04R
$$


USA.gov is the U.S. government's official web portal to all federal, state and local government web resources and services.